Location: Stockholm
(59.3330°N, 18.0500°E)
Time: 10:11:31
(UTC+01:00)

FENGYUN 1C DEB - Pass Details

Date: 11 December 2023
Orbit: 841 x 915 km, 98.8° (Epoch: 27 February)

Event Time Altitude Azimuth Distance (km) Brightness Sun altitude
Exits shadow 17:00:26 11° 25° (NNE) 2,420 ? -14.7°
Maximum altitude 17:00:32 11° 24° (NNE) 2,420 ? -14.7°
Drops below altitude 10° 17:01:50 10° 10° (N) 2,484 ? -14.9°
Sets 17:06:18 0° 336° (NNW) 3,436 ? -15.4°
